sat.trackr.live / text

‹ back to catalog

STARLINK-11229 [DTC]

NORAD 60908 · 2024-154F

PAYLOAD ACTIVE UNKNOWN

§ Identity

Operator
Country
US
Launch date
2024-08-31
Launch site
AFETR
Launch vehicle
Mass (kg)
RCS (m²)

Purposes: comms

External: N2YO · Heavens-Above · Gunter

§ Orbital elements

Epoch: 2026-09-21T16:06:31.623840Z

Period
91.74 min
Inclination
53.1591°
Eccentricity
0.0000852
Mean motion
15.69708343 rev/d
Perigee alt
359.2 km
Apogee alt
360.3 km
Semi-major
6,737.9 km
B*
-2.7570e-5
RAAN
245.2836°
Arg perigee
75.9477°
Mean anomaly
284.1635°
Rev number
11,929

§ Raw data

STARLINK-11229 [DTC]1 60908U 24154F   26264.67119935 -.00003926  00000+0 -27570-4 0  99962 60908  53.1591 245.2836 0000852  75.9477 284.1635 15.69708343119290

JSON: /api/v1/satellites/60908 · /tle

For live sub-satellite position, see the globe view (requires WebGL).

§ Visibility from observer

Set your observer location to see the next 7 days of passes ≥ 10°. The values pass through the URL so the page stays shareable.

No JS? Fill the form by hand. The geolocation button needs JavaScript.